FW4092 Weather Reports


time (UTC)temp
C
wind
direction
speed
KPH
gust
KPH
rain 1hr
cm
rain 24hr
cm
rain mn
cm
humidity
%
barometer
mb
20191021180700 13 167 1.6 4.8 0.00 0.00 0.00 52 1024.6
20191021180200 13 152 1.6 6.4 0.00 0.00 0.00 53 1024.5
20191021175700 13 55 1.6 6.4 0.00 0.00 0.00 54 1024.5
20191021175201 13 59 1.6 8.0 0.00 0.00 0.00 55 1024.5
20191021174658 12 111 1.6 8.0 0.00 0.00 0.00 56 1024.5
20191021174158 12 106 1.6 6.4 0.00 0.00 0.00 57 1024.4
20191021173658 12 119 3.2 6.4 0.00 0.00 0.00 62 1024.3
20191021173157 11 155 3.2 9.7 0.00 0.00 0.00 62 1024.5
20191021172658 11 112 3.2 9.7 0.00 0.00 0.00 64 1024.4
20191021172203 10 101 3.2 6.4 0.00 0.00 0.00 68 1024.2
20191021171703 10 126 1.6 6.4 0.00 0.00 0.00 67 1024.3
20191021171203 10 120 3.2 8.0 0.00 0.00 0.00 69 1024.5
20191021170703 10 261 1.6 8.0 0.00 0.00 0.00 68 1024.6
20191021170204 10 237 1.6 4.8 0.00 0.00 0.00 68 1024.5
20191021165704 10 342 1.6 4.8 0.00 0.00 0.00 69 1024.4
20191021165200 10 142 1.6 4.8 0.00 0.00 0.00 69 1024.5
20191021164701 10 122 3.2 6.4 0.00 0.00 0.00 70 1024.5
20191021164205 10 126 3.2 9.7 0.00 0.00 0.00 69 1024.4
20191021163701 10 130 3.2 9.7 0.00 0.00 0.00 69 1024.5
20191021163200 10 186 1.6 8.0 0.00 0.00 0.00 69 1024.3
20191021162700 10 105 1.6 6.4 0.00 0.00 0.00 70 1024.3
20191021162200 10 209 1.6 4.8 0.00 0.00 0.00 69 1024.2
20191021161700 10 232 1.6 4.8 0.00 0.00 0.00 69 1024.3
20191021161202 10 187 1.6 3.2 0.00 0.00 0.00 70 1024.2
20191021160703 10 188 1.6 4.8 0.00 0.00 0.00 69 1024.0
20191021160202 10 188 1.6 4.8 0.00 0.00 0.00 69 1024.2
20191021155705 9 161 0.0 1.6 0.00 0.00 0.00 68 1023.8
20191021155158 9 161 0.0 1.6 0.00 0.00 0.00 70 1023.7
20191021154659 9 161 0.0 1.6 0.00 0.00 0.00 69 1023.6
20191021154156 9 161 0.0 1.6 0.00 0.00 0.00 70 1023.6
20191021153655 9 161 0.0 3.2 0.00 0.00 0.00 71 1023.5
20191021153155 8 161 0.0 3.2 0.00 0.00 0.00 72 1023.3
20191021152655 8 238 1.6 3.2 0.00 0.00 0.00 72 1023.3
20191021152156 9 238 1.6 3.2 0.00 0.00 0.00 72 1023.2
20191021151656 9 238 0.0 3.2 0.00 0.00 0.00 71 1023.1
20191021151155 9 238 0.0 8.0 0.00 0.00 0.00 70 1023.1
20191021150655 9 238 1.6 8.0 0.00 0.00 0.00 70 1023.1
20191021150155 9 238 3.2 8.0 0.00 0.00 0.00 69 1023.1
20191021145655 8 279 3.2 9.7 0.00 0.00 0.00 70 1023.1
20191021145156 8 238 4.8 9.7 0.00 0.00 0.00 70 1023.2
20191021144655 8 273 3.2 11.3 0.00 0.00 0.00 71 1023.1
20191021144155 8 242 4.8 11.3 0.00 0.00 0.00 71 1023.3
20191021143655 8 247 3.2 11.3 0.00 0.00 0.00 71 1023.1
20191021143156 8 272 1.6 11.3 0.00 0.00 0.00 72 1023.2
20191021142655 8 268 3.2 8.0 0.00 0.00 0.00 72 1023.2
20191021142155 8 267 3.2 9.7 0.00 0.00 0.00 71 1023.3
20191021141655 8 267 3.2 9.7 0.00 0.00 0.00 71 1023.3
20191021141156 8 273 3.2 6.4 0.00 0.00 0.00 70 1023.3
20191021140658 8 263 4.8 9.7 0.00 0.00 0.00 70 1023.1
20191021140155 8 296 4.8 11.3 0.00 0.00 0.00 70 1023.0
20191021135655 8 327 3.2 11.3 0.00 0.00 0.00 70 1023.1
20191021135153 8 265 3.2 9.7 0.00 0.00 0.00 70 1023.0
20191021134653 8 296 3.2 9.7 0.00 0.00 0.00 70 1023.0
20191021134153 8 307 3.2 8.0 0.00 0.00 0.00 71 1022.8
20191021133653 8 306 3.2 8.0 0.00 0.00 0.00 70 1022.7
20191021133153 8 317 3.2 9.7 0.00 0.00 0.00 70 1022.6
20191021132653 8 333 3.2 9.7 0.00 0.00 0.00 70 1022.6
20191021132153 8 355 3.2 9.7 0.00 0.00 0.00 71 1022.6
20191021131656 8 290 3.2 6.4 0.00 0.00 0.00 71 1022.6
20191021131159 8 319 1.6 6.4 0.00 0.00 0.00 72 1022.6
20191021130655 8 325 1.6 4.8 0.00 0.00 0.00 72 1022.5
20191021130151 8 337 1.6 8.0 0.00 0.00 0.00 71 1022.2
20191021125651 8 315 1.6 8.0 0.00 0.00 0.00 71 1022.1
20191021125151 8 294 1.6 8.0 0.00 0.00 0.00 71 1022.0
20191021124652 8 319 1.6 8.0 0.00 0.00 0.00 71 1022.0
20191021124151 8 272 1.6 4.8 0.00 0.00 0.00 70 1021.9
20191021123651 8 296 1.6 4.8 0.00 0.00 0.00 69 1021.8
20191021123152 8 308 3.2 6.4 0.00 0.00 0.00 69 1021.6
20191021122651 8 274 3.2 9.7 0.00 0.00 0.00 69 1021.6
20191021122149 8 314 4.8 12.9 0.00 0.00 0.00 68 1021.5
20191021121649 9 298 4.8 12.9 0.00 0.00 0.00 68 1021.5
20191021121147 9 291 4.8 16.1 0.00 0.00 0.00 68 1021.4
20191021120650 8 298 3.2 16.1 0.00 0.00 0.00 68 1021.4
20191021120144 8 293 1.6 11.3 0.00 0.00 0.00 67 1021.6
20191021115645 8 319 3.2 6.4 0.00 0.00 0.00 68 1021.8
20191021115145 8 325 3.2 6.4 0.00 0.00 0.00 68 1021.5
20191021114645 8 304 3.2 6.4 0.00 0.00 0.00 68 1021.4
20191021114145 8 314 3.2 8.0 0.00 0.00 0.00 67 1021.2
20191021113645 8 272 3.2 8.0 0.00 0.00 0.00 67 1021.0
20191021113145 8 287 3.2 8.0 0.00 0.00 0.00 68 1020.9
20191021112644 8 336 3.2 8.0 0.00 0.00 0.00 68 1021.0
20191021112143 8 292 3.2 8.0 0.00 0.00 0.00 68 1021.0
20191021111643 8 302 3.2 6.4 0.00 0.00 0.00 68 1020.9
20191021111143 8 299 3.2 11.3 0.00 0.00 0.00 68 1020.8
20191021110642 8 268 3.2 11.3 0.00 0.00 0.00 67 1020.8
20191021110143 9 271 3.2 11.3 0.00 0.00 0.00 67 1020.7
20191021105642 9 273 4.8 14.5 0.00 0.00 0.00 67 1020.6
20191021105143 9 301 4.8 14.5 0.00 0.00 0.00 66 1020.7
20191021104643 9 278 4.8 14.5 0.00 0.00 0.00 67 1020.7
20191021104143 9 313 3.2 12.9 0.00 0.00 0.00 67 1020.6
20191021103643 9 237 4.8 14.5 0.00 0.00 0.00 67 1020.6
20191021103143 9 303 4.8 14.5 0.00 0.00 0.00 66 1020.3
20191021102643 9 257 6.4 14.5 0.00 0.00 0.00 66 1020.5
20191021102140 9 304 6.4 12.9 0.00 0.00 0.00 66 1020.7
20191021101641 9 300 6.4 19.3 0.00 0.00 0.00 66 1020.8
20191021101141 9 311 6.4 19.3 0.00 0.00 0.00 65 1020.8
20191021100641 9 287 8.0 17.7 0.00 0.00 0.00 65 1020.7
20191021100141 9 254 8.0 17.7 0.00 0.00 0.00 65 1020.8
20191021095641 9 261 8.0 17.7 0.00 0.00 0.00 65 1020.9
20191021095140 9 290 6.4 16.1 0.00 0.00 0.00 65 1020.9
20191021094640 9 269 4.8 12.9 0.00 0.00 0.00 65 1020.8
20191021094138 9 298 4.8 12.9 0.00 0.00 0.00 66 1020.5
20191021093639 9 323 6.4 17.7 0.00 0.00 0.00 66 1020.3
20191021093139 9 277 8.0 17.7 0.00 0.00 0.00 65 1020.2
20191021092638 9 298 8.0 17.7 0.00 0.00 0.00 65 1020.1
20191021092139 9 248 6.4 19.3 0.00 0.00 0.00 65 1020.1
20191021091638 9 269 4.8 19.3 0.00 0.00 0.00 66 1020.2
20191021091138 9 279 6.4 14.5 0.00 0.00 0.00 66 1020.1
20191021090638 9 244 6.4 17.7 0.00 0.00 0.00 66 1020.2
20191021090137 9 274 4.8 17.7 0.00 0.00 0.00 67 1020.2
20191021085640 9 296 3.2 14.5 0.00 0.00 0.00 68 1020.1
20191021085138 9 234 1.6 14.5 0.00 0.00 0.00 68 1020.1
20191021084638 9 241 3.2 8.0 0.00 0.00 0.00 69 1020.0
20191021084138 9 245 1.6 8.0 0.00 0.00 0.00 68 1020.0
20191021083641 9 180 3.2 8.0 0.00 0.00 0.00 68 1019.9
20191021083139 9 234 3.2 8.0 0.00 0.00 0.00 68 1019.9
20191021082638 9 239 3.2 20.9 0.00 0.00 0.00 69 1019.9
20191021082138 9 244 3.2 20.9 0.00 0.00 0.00 69 1019.6
20191021081639 9 303 1.6 6.4 0.00 0.00 0.00 69 1019.7
20191021081136 9 277 1.6 6.4 0.00 0.00 0.00 69 1019.5
20191021080637 9 254 1.6 4.8 0.00 0.00 0.00 69 1019.5
20191021080136 9 64 3.2 12.9 0.00 0.00 0.00 68 1019.4
20191021075637 9 279 3.2 12.9 0.00 0.00 0.00 68 1019.0
20191021075136 9 295 1.6 6.4 0.00 0.00 0.00 68 1019.0
20191021074637 9 233 1.6 6.4 0.00 0.00 0.00 68 1018.9
20191021074136 9 238 1.6 6.4 0.00 0.00 0.00 68 1018.9
20191021073639 9 5 1.6 4.8 0.00 0.00 0.00 67 1018.5
20191021073136 9 49 1.6 11.3 0.00 0.00 0.00 67 1018.9
20191021072637 9 159 3.2 17.7 0.00 0.00 0.00 67 1019.1
20191021072138 9 242 3.2 17.7 0.00 0.00 0.00 67 1018.9
20191021071634 9 246 4.8 14.5 0.00 0.00 0.00 66 1018.7
20191021071133 9 236 6.4 19.3 0.00 0.00 0.00 66 1018.6
20191021070633 9 252 6.4 19.3 0.00 0.00 0.00 66 1018.5
20191021070132 9 261 6.4 19.3 0.00 0.00 0.00 65 1018.4
20191021065633 9 210 4.8 19.3 0.00 0.00 0.00 65 1018.5
20191021065132 10 251 6.4 16.1 0.00 0.00 0.00 65 1018.5
20191021064632 10 266 8.0 16.1 0.00 0.00 0.00 64 1018.5
20191021064132 10 246 6.4 16.1 0.00 0.00 0.00 64 1018.4
20191021063631 10 244 8.0 19.3 0.00 0.00 0.00 64 1018.4
20191021063132 10 197 6.4 19.3 0.00 0.00 0.00 64 1018.3
20191021062632 10 223 4.8 14.5 0.00 0.00 0.00 65 1018.2
20191021062132 10 230 4.8 14.5 0.00 0.00 0.00 65 1018.3
20191021061632 10 210 6.4 19.3 0.00 0.00 0.00 64 1018.3
20191021061132 10 221 8.0 19.3 0.00 0.00 0.00 64 1018.1
20191021060632 10 221 8.0 19.3 0.00 0.00 0.00 64 1018.1
20191021060132 10 257 8.0 19.3 0.00 0.00 0.00 64 1017.8
20191021055631 10 198 8.0 25.7 0.00 0.00 0.00 65 1017.8
20191021055131 10 270 8.0 25.7 0.00 0.00 0.00 64 1017.8
20191021054630 10 197 8.0 22.5 0.00 0.00 0.00 63 1017.7
20191021054130 10 254 9.7 20.9 0.00 0.00 0.00 63 1017.5
20191021053631 10 260 9.7 29.0 0.00 0.00 0.00 64 1017.5
20191021053130 10 241 11.3 29.0 0.00 0.00 0.00 63 1017.5
20191021052628 10 260 11.3 24.1 0.00 0.00 0.00 63 1017.5
20191021052128 10 251 11.3 25.7 0.00 0.00 0.00 63 1017.5
20191021051629 10 244 12.9 29.0 0.00 0.00 0.00 62 1017.3
20191021051128 10 269 14.5 32.2 0.00 0.00 0.00 63 1017.3
20191021050628 10 234 14.5 37.0 0.00 0.00 0.00 62 1017.3
20191021050128 11 319 14.5 37.0 0.00 0.00 0.00 61 1017.0
20191021045627 11 279 14.5 30.6 0.00 0.00 0.00 62 1017.3
20191021045128 11 277 12.9 30.6 0.00 0.00 0.00 62 1017.2
20191021044628 11 321 16.1 33.8 0.00 0.00 0.00 62 1017.3
20191021044127 11 237 17.7 33.8 0.00 0.00 0.00 62 1017.0
20191021043629 11 278 16.1 35.4 0.00 0.00 0.00 61 1016.9
20191021043128 11 201 14.5 35.4 0.00 0.00 0.00 60 1016.9
20191021042628 11 300 14.5 27.4 0.00 0.00 0.00 60 1016.9
20191021042127 11 300 16.1 38.6 0.00 0.00 0.00 61 1016.9
20191021041627 11 245 20.9 40.2 0.00 0.00 0.00 61 1016.6
20191021041128 11 264 20.9 40.2 0.00 0.00 0.00 61 1016.4
20191021040628 11 225 19.3 40.2 0.00 0.00 0.00 61 1016.2
20191021040128 11 272 19.3 41.8 0.00 0.00 0.00 60 1016.3
20191021035627 11 284 20.9 41.8 0.00 0.00 0.00 60 1016.4
20191021035128 11 292 17.7 37.0 0.00 0.00 0.00 60 1016.4
20191021034628 11 263 16.1 32.2 0.00 0.00 0.00 61 1016.4
20191021034129 11 275 16.1 30.6 0.00 0.00 0.00 61 1016.3
20191021033627 11 268 16.1 27.4 0.00 0.00 0.00 60 1016.5
20191021033128 11 265 17.7 32.2 0.00 0.00 0.00 60 1016.6
20191021032627 11 269 17.7 30.6 0.00 0.00 0.00 60 1016.5
20191021032128 11 271 14.5 30.6 0.00 0.00 0.00 61 1016.5
20191021031627 11 275 12.9 29.0 0.00 0.00 0.00 60 1016.6
20191021031129 11 271 14.5 38.6 0.00 0.00 0.00 60 1016.5
20191021030626 11 256 16.1 38.6 0.00 0.00 0.00 59 1016.5
20191021030127 11 263 14.5 29.0 0.00 0.00 0.00 59 1016.6
20191021025625 11 254 14.5 37.0 0.00 0.00 0.00 60 1016.8
20191021025125 11 263 14.5 37.0 0.00 0.00 0.00 59 1016.9
20191021024626 11 271 16.1 30.6 0.00 0.00 0.00 59 1016.6
20191021024125 11 264 14.5 30.6 0.00 0.00 0.00 60 1016.4
20191021023625 11 254 12.9 30.6 0.00 0.00 0.00 60 1016.8
20191021023125 11 275 11.3 20.9 0.00 0.00 0.00 61 1016.5
20191021022625 11 234 11.3 22.5 0.00 0.00 0.00 61 1016.5
20191021022126 11 267 11.3 24.1 0.00 0.00 0.00 61 1016.6
20191021021626 11 307 12.9 29.0 0.00 0.00 0.00 61 1016.5
20191021021125 11 240 11.3 29.0 0.00 0.00 0.00 61 1016.5
20191021020626 11 261 9.7 22.5 0.00 0.00 0.00 61 1016.4
20191021020125 11 246 9.7 20.9 0.00 0.00 0.00 61 1016.3
20191021015626 11 264 11.3 22.5 0.00 0.00 0.00 60 1016.3
20191021015125 11 241 11.3 22.5 0.00 0.00 0.00 61 1016.5
20191021014625 11 259 9.7 19.3 0.00 0.00 0.00 62 1016.5
20191021014125 11 241 8.0 19.3 0.00 0.00 0.00 62 1016.3
20191021013623 11 240 8.0 20.9 0.00 0.00 0.00 63 1016.5
20191021013123 11 268 9.7 29.0 0.00 0.00 0.00 63 1016.6
20191021012623 11 224 9.7 29.0 0.00 0.00 0.00 62 1016.4
20191021012123 11 246 8.0 24.1 0.00 0.00 0.00 62 1016.5
20191021011623 11 225 6.4 14.5 0.00 0.00 0.00 64 1016.5
20191021011123 11 245 6.4 14.5 0.00 0.00 0.00 63 1016.4
20191021010623 11 267 6.4 14.5 0.00 0.00 0.00 62 1016.4
20191021010122 11 229 6.4 14.5 0.00 0.00 0.00 63 1016.4
20191021005623 11 244 6.4 16.1 0.00 0.00 0.00 62 1016.5
20191021005123 12 221 6.4 16.1 0.00 0.00 0.00 61 1016.5
20191021004623 12 239 6.4 16.1 0.00 0.00 0.00 62 1016.5
20191021004125 12 266 8.0 14.5 0.00 0.00 0.00 60 1016.5
20191021003623 12 279 8.0 14.5 0.00 0.00 0.00 60 1016.5
20191021003123 13 290 6.4 14.5 0.00 0.00 0.00 59 1016.6
20191021002625 13 218 8.0 19.3 0.00 0.00 0.00 57 1016.6
20191021002128 13 325 8.0 19.3 0.00 0.00 0.00 56 1016.6
20191021001631 13 248 6.4 17.7 0.00 0.00 0.00 57 1016.5
20191021001126 13 234 6.4 14.5 0.00 0.00 0.00 57 1016.5
20191021000626 13 267 6.4 14.5 0.00 0.00 0.00 57 1016.4
20191021000125 13 266 8.0 19.3 0.00 0.00 0.00 58 1016.4
20191020235623 13 232 8.0 19.3 0.00 0.00 0.00 58 1016.6
20191020235122 13 238 9.7 22.5 0.00 0.00 0.00 59 1016.6
20191020234622 13 265 11.3 27.4 0.00 0.00 0.00 58 1016.6
20191020234119 13 288 11.3 27.4 0.00 0.00 0.00 60 1016.5
20191020233618 13 300 12.9 29.0 0.00 0.00 0.00 63 1016.4
20191020233119 13 295 12.9 30.6 0.00 0.00 0.00 63 1016.1
20191020232619 13 234 9.7 30.6 0.00 0.05 0.00 65 1016.1
20191020232119 13 299 8.0 20.9 0.00 0.08 0.00 64 1016.1
20191020231619 13 248 8.0 20.9 0.00 0.10 0.00 65 1016.0
20191020231119 12 265 6.4 19.3 0.00 0.13 0.00 66 1016.0
20191020230619 12 265 8.0 20.9 0.00 0.13 0.00 66 1015.9
20191020230119 12 290 9.7 20.9 0.00 0.13 0.00 65 1016.0
20191020225618 13 279 11.3 24.1 0.00 0.13 0.00 66 1016.0
20191020225119 13 295 12.9 25.7 0.00 0.13 0.00 66 1015.9
20191020224619 12 280 16.1 29.0 0.00 0.13 0.00 67 1015.8
20191020224118 13 295 14.5 29.0 0.00 0.13 0.00 66 1015.7
20191020223619 13 305 11.3 25.7 0.00 0.13 0.00 68 1015.6
20191020223119 12 254 6.4 22.5 0.00 0.13 0.00 69 1015.6
20191020222619 12 225 4.8 12.9 0.00 0.13 0.00 69 1015.4
20191020222118 12 286 3.2 11.3 0.00 0.13 0.00 68 1015.2
20191020221619 11 57 3.2 11.3 0.00 0.13 0.00 70 1015.2
20191020221119 11 46 4.8 11.3 0.00 0.13 0.00 70 1015.1
20191020220619 11 61 4.8 11.3 0.00 0.13 0.00 70 1015.1
20191020220119 11 204 4.8 11.3 0.00 0.15 0.00 69 1015.0
20191020215618 11 26 4.8 16.1 0.00 0.15 0.00 69 1015.1
20191020215118 11 94 4.8 16.1 0.00 0.18 0.00 71 1015.3
20191020214618 11 95 3.2 11.3 0.00 0.18 0.00 71 1015.2
20191020214119 11 94 4.8 11.3 0.00 0.18 0.00 72 1015.6
20191020213621 11 119 6.4 14.5 0.00 0.18 0.00 70 1015.6
20191020213119 11 126 4.8 14.5 0.00 0.18 0.00 70 1015.6
20191020212617 11 88 4.8 12.9 0.00 0.18 0.00 70 1015.6
20191020212116 11 101 4.8 12.9 0.00 0.18 0.00 72 1015.7
20191020211614 10 116 6.4 14.5 0.00 0.18 0.00 69 1015.8
20191020211115 10 128 6.4 14.5 0.00 0.18 0.00 71 1015.7
20191020210615 10 107 6.4 14.5 0.00 0.18 0.00 71 1015.9
20191020210115 10 117 6.4 16.1 0.00 0.18 0.00 74 1015.9
20191020205617 9 130 6.4 16.1 0.00 0.18 0.00 73 1016.0
20191020205115 9 101 4.8 12.9 0.00 0.18 0.00 72 1016.1
20191020204617 9 134 4.8 14.5 0.00 0.18 0.00 74 1016.2
20191020204114 8 117 6.4 14.5 0.00 0.18 0.00 73 1016.3
20191020203614 8 140 6.4 14.5 0.00 0.18 0.00 73 1016.3
20191020203112 8 138 6.4 14.5 0.00 0.20 0.00 71 1016.3
20191020202612 8 123 6.4 14.5 0.00 0.23 0.00 72 1016.4
20191020202111 8 125 6.4 12.9 0.00 0.23 0.00 73 1016.4
20191020201610 8 130 6.4 16.1 0.00 0.23 0.00 71 1016.2
20191020201110 8 130 4.8 16.1 0.00 0.23 0.00 72 1016.4
20191020200610 8 120 4.8 14.5 0.00 0.23 0.00 71 1016.4
20191020200110 8 102 8.0 16.1 0.00 0.23 0.00 71 1016.5
20191020195611 8 126 6.4 16.1 0.00 0.23 0.00 71 1016.5
20191020195110 8 155 4.8 16.1 0.00 0.23 0.00 72 1016.6
20191020194610 8 157 6.4 16.1 0.00 0.23 0.00 72 1016.6
20191020194110 7 94 8.0 16.1 0.00 0.23 0.00 72 1016.4
20191020193610 7 168 8.0 14.5 0.00 0.23 0.00 72 1016.4
20191020193110 7 121 8.0 17.7 0.00 0.23 0.00 71 1016.5
20191020192610 7 145 8.0 17.7 0.00 0.23 0.00 71 1016.4
20191020192111 7 141 6.4 17.7 0.00 0.23 0.00 71 1016.5
20191020191611 7 138 6.4 17.7 0.00 0.23 0.00 71 1016.5
20191020191110 7 112 6.4 17.7 0.00 0.23 0.00 73 1016.8
20191020190613 7 204 6.4 24.1 0.00 0.23 0.00 73 1016.8
20191020190109 7 142 6.4 24.1 0.00 0.23 0.00 74 1016.9
20191020185608 7 171 6.4 19.3 0.00 0.23 0.00 74 1016.8
20191020185111 7 144 8.0 27.4 0.00 0.23 0.00 75 1016.8
20191020184607 6 148 8.0 27.4 0.00 0.25 0.00 73 1016.8
20191020184108 6 168 6.4 19.3 0.00 0.25 0.00 74 1016.8
20191020183608 6 186 6.4 17.7 0.00 0.25 0.00 74 1016.9
20191020183105 6 180 6.4 24.1 0.00 0.25 0.00 74 1016.8
20191020182607 6 172 6.4 24.1 0.00 0.28 0.00 74 1016.6
20191020182106 6 175 6.4 19.3 0.00 0.28 0.00 73 1016.6
20191020181606 6 196 4.8 17.7 0.00 0.30 0.00 74 1016.8
20191020181105 6 179 6.4 17.7 0.00 0.30 0.00 74 1016.5